Home   Weather   Hollywood   Past weeks
Flag for USA

Past Weather in Hollywood, California, USA — Yesterday and Last 2 Weeks

Now
82 °F

Sunny.


Feels Like: 81 °F
Forecast: 80 / 64 °F
Wind: 12 mph from South

Location: Bob Hope Airport

Current Time: Sep 16, 2019 at 1:39:04 pm

Latest Report: Sep 16, 2019 at 12:53 pm


Visibility: 10 mi

Pressure: 29.87 "Hg

Humidity: 37%

Dew Point: 53 °F

Location of HollywoodLocation

Past Weather in Hollywood — Graph

°F

Hollywood Temperature Yesterday

Maximum temperature yesterday: 89 °F (at 1:53 pm)
Minimum temperature yesterday: 67 °F (at 5:53 am)
Average temperature yesterday: 77 °F

High & Low Weather Summary for the Past Weeks

 TemperatureHumidityPressure
High98 °F (Sep 4, 1:53 pm)94% (Sep 16, 6:53 am)30.01 "Hg (Sep 16, 6:53 am)
Low62 °F (Sep 9, 4:53 am)15% (Sep 7, 4:53 pm)29.75 "Hg (Sep 4, 4:53 pm)
Average77 °F54%29.87 "Hg
* Reported Sep 1 11:53 am — Sep 16 11:53 am, Hollywood. Weather by CustomWeather, © 2019

Note: Actual official high and low records may vary slightly from our data, if they occured in-between our weather recording intervals... More about our weather records

Advertising

Hollywood Weather History for the Previous 24 Hours

Scroll right to see more
 ConditionsComfort  
Time TempWeatherWind HumidityBarometerVisibility
11:53 am
Mon, Sep 16
80 °FSunny.13 mph44%29.88 "Hg10 mi
10:53 am77 °FSunny.8 mph54%29.90 "Hg10 mi
9:53 am71 °FSunny.5 mph68%29.91 "Hg7 mi
8:53 am67 °FSunny.5 mph81%29.88 "Hg6 mi
7:53 am65 °FSunny.6 mph91%29.89 "Hg6 mi
6:53 am65 °FSunny.No wind94%29.86 "Hg6 mi
5:53 am65 °FClear.No wind91%29.86 "Hg8 mi
4:53 am66 °FClear.No wind84%29.85 "Hg9 mi
3:53 am67 °FClear.No wind85%29.85 "Hg10 mi
2:53 am68 °FClear.5 mph82%29.85 "Hg10 mi
1:53 am68 °FClear.No wind84%29.86 "Hg10 mi
12:53 am69 °FClear.3 mph81%29.85 "Hg10 mi
11:53 pm
Sun, Sep 15
70 °FClear.5 mph79%29.84 "Hg10 mi
10:53 pm72 °FClear.6 mph73%29.83 "Hg10 mi
9:53 pm74 °FClear.3 mph67%29.83 "Hg10 mi
8:53 pm76 °FClear.5 mph58%29.82 "Hg10 mi
7:53 pm76 °FClear.7 mph58%29.82 "Hg10 mi
6:53 pm78 °FSunny.10 mph56%29.81 "Hg10 mi
5:53 pm81 °FSunny.9 mph47%29.81 "Hg10 mi
4:53 pm86 °FSunny.7 mph30%29.80 "Hg10 mi
3:53 pm84 °FSunny.13 mph41%29.80 "Hg10 mi
2:53 pm88 °FSunny.12 mph39%29.81 "Hg10 mi
1:53 pm89 °FSunny.12 mph28%29.82 "Hg10 mi
Weather by CustomWeather, © 2019

See weather overview